Snowfall_Accumulation
nan nan nan nan nan nan nan nan nan nan nan nan nan nan nan nan nan 0.0 0.0 0.0 0.0 nan nan 0.0 0.0 0.0 0.0 0.0 0.0 0.0 0.0 0.0 0.0 0.0 0.0 0.0 0.0 0.0 0.0 0.0 0.0 0.0 0.0 0.0 0.0
nan nan nan nan nan nan nan nan nan nan nan nan nan nan nan nan 0.0 0.0 nan nan nan nan 0.0 0.0 0.0 0.0 0.0 0.0 0.0 0.0 0.0 0.0 0.0 0.0 0.0 0.0 0.0 0.0 0.0 0.0 0.0 0.0 0.0 0.0 0.0
nan nan nan nan nan nan nan nan nan nan nan nan nan nan nan 0.0 0.0 0.0 nan nan nan 0.0 0.0 0.0 0.0 0.0 0.0 0.0 0.0 0.0 0.0 0.0 0.0 0.0 0.0 0.0 0.0 0.0 0.0 0.0 0.0 0.0 0.0 0.0 0.0
nan nan nan nan nan nan nan nan nan nan nan nan nan nan nan 0.0 0.0 0.0 nan nan nan 0.0 0.0 0.0 0.0 0.0 0.0 0.0 0.0 0.0 0.0 0.0 0.0 0.0 0.0 0.0 0.0 0.0 0.0 0.0 0.0 0.0 0.0 0.0 0.0
nan nan nan nan nan nan nan nan nan nan nan nan nan nan 0.0 0.0 0.0 0.0 nan nan 0.0 0.0 0.0 0.0 0.0 0.0 0.0 0.0 0.0 0.0 0.0 0.0 0.0 0.0 0.0 0.0 0.0 0.0 0.0 0.0 0.0 0.0 0.0 0.0 0.0
nan nan nan nan nan nan nan nan nan nan nan nan nan nan 0.0 0.0 0.0 0.0 0.0 0.0 0.0 0.0 0.0 0.0 0.0 0.0 0.0 0.0 0.0 0.0 0.0 0.0 0.0 0.0 0.0 0.0 0.0 0.0 0.0 0.0 0.0 0.0 0.0 0.0 0.0
nan nan nan nan nan nan nan nan nan nan nan nan nan 0.0 0.0 0.0 0.0 0.0 0.0 0.0 0.0 0.0 0.0 0.0 0.0 0.0 0.0 0.0 0.0 0.0 0.0 0.0 0.0 0.0 0.0 0.0 0.0 0.0 0.0 0.0 0.0 0.0 0.0 0.0 0.0
nan nan nan nan nan nan nan nan nan nan nan nan nan 0.0 0.0 0.0 0.0 0.0 0.0 0.0 0.0 0.0 0.0 0.0 0.0 0.0 0.0 0.0 0.0 0.0 0.0 0.0 0.0 0.0 0.0 0.0 0.0 0.0 0.0 0.0 0.0 0.0 0.0 0.0 0.0
nan nan nan nan nan nan nan nan nan nan nan nan 0.0 0.0 0.0 nan 0.0 0.0 0.0 0.0 0.0 0.0 0.0 0.0 0.0 0.0 0.0 0.0 0.0 0.0 0.0 0.0 0.0 0.0 0.0 0.0 0.0 0.0 0.0 0.0 0.0 0.0 0.0 0.0 0.0
nan nan nan nan nan nan nan nan nan nan 0.0 0.0 0.0 0.0 0.0 0.0 0.0 0.0 0.0 0.0 0.0 0.0 0.0 0.0 0.0 0.0 0.0 0.0 0.6 0.0 0.0 0.0 0.0 0.0 0.0 0.0 0.0 0.0 0.0 0.0 0.0 0.0 0.0 0.0 0.0
nan nan nan nan nan nan 0.0 0.0 0.0 0.0 0.0 0.0 0.0 0.0 0.0 0.0 0.0 0.0 0.0 0.0 0.0 0.0 0.0 0.0 0.0 0.0 0.0 0.0 0.0 0.0 0.0 0.0 0.0 0.0 0.0 0.0 0.0 0.0 0.0 0.0 0.0 0.0 0.0 0.0 0.0
nan nan nan nan nan nan 0.0 0.0 0.0 0.0 0.0 0.0 0.0 0.0 0.0 0.0 0.0 0.0 0.0 0.0 0.0 0.0 0.0 0.0 0.0 0.0 0.0 0.0 0.0 0.0 0.0 0.1 0.0 0.0 0.0 0.0 0.0 0.0 0.0 0.0 0.0 0.0 0.0 0.0 0.0
nan nan nan nan nan 0.0 0.0 0.0 0.0 0.0 0.0 0.0 0.0 0.0 0.0 0.0 0.0 0.0 0.0 0.0 0.0 0.0 0.0 0.1 0.0 0.0 0.0 0.0 0.0 0.0 0.0 0.0 0.0 0.0 0.0 0.0 0.0 0.0 0.0 0.0 0.0 0.0 0.0 0.0 0.0
nan nan nan nan nan 0.0 0.0 0.0 0.0 0.0 1.0 0.1 0.0 0.0 0.0 0.0 0.0 0.0 0.0 0.0 0.0 0.0 0.0 0.0 0.0 0.0 0.0 0.0 0.0 0.1 0.0 0.0 0.0 0.2 1.8 0.0 4.1 0.0 0.0 0.0 0.0 0.0 0.0 0.0 0.0
nan nan nan nan 0.0 0.0 0.0 0.0 0.0 0.0 34.9 0.0 0.0 0.0 0.0 0.0 0.0 0.0 0.0 0.0 0.0 0.0 0.1 0.0 0.0 0.0 0.0 0.0 0.0 0.1 0.0 0.0 0.0 0.4 0.3 0.0 1.0 0.0 0.0 0.0 0.0 0.0 0.0 0.0 0.0
nan nan nan 0.0 0.0 0.0 0.0 0.0 0.0 14.3 30.5 2.6 0.0 0.0 0.0 0.0 0.0 0.0 0.0 0.0 0.0 0.0 0.0 0.0 0.0 0.0 0.0 0.0 0.0 0.0 0.0 0.0 0.0 0.1 7.7 0.0 0.0 0.0 0.0 0.0 0.0 0.0 0.0 0.0 0.0
nan nan nan 0.0 0.0 0.0 0.0 0.0 34.9 45.7 0.5 1.8 1.2 0.0 0.0 0.0 0.0 0.0 0.0 0.0 0.3 2.4 0.2 0.0 0.0 0.0 0.0 0.0 0.0 0.0 0.5 15.9 18.3 24.6 11.2 0.0 0.0 0.0 0.0 0.0 0.0 0.0 0.0 0.0 0.0
nan nan nan 0.0 0.0 0.0 0.0 0.3 53.2 13.9 5.5 0.0 0.1 0.0 0.2 0.0 0.0 0.0 0.0 0.2 0.0 0.1 0.8 0.7 2.6 0.0 0.0 0.0 0.1 0.1 1.8 9.7 13.4 8.7 2.7 0.0 2.8 0.0 0.0 0.0 0.0 0.0 0.0 0.0 0.0
nan 0.0 0.0 0.0 0.0 0.0 0.1 39.4 20.6 3.7 1.9 0.3 0.1 3.0 1.6 0.1 0.1 0.0 0.1 0.2 0.0 0.1 1.8 0.8 0.3 0.0 0.0 0.0 0.0 0.9 3.5 0.0 8.1 3.5 5.6 0.5 0.0 0.0 0.0 0.0 0.0 0.0 0.0 0.0 0.0
0.0 0.0 0.0 0.0 0.0 0.0 12.3 nan 5.4 0.0 0.0 0.0 2.4 1.8 9.3 3.5 0.2 0.1 0.1 0.0 0.0 0.0 0.0 0.1 2.1 0.0 0.0 0.0 0.0 0.3 0.0 5.8 6.4 14.1 7.1 2.0 0.3 0.2 0.0 0.0 0.1 0.2 0.0 0.0 0.0
0.0 0.3 0.0 0.0 0.0 0.7 24.5 8.9 1.8 0.0 0.0 0.1 2.5 4.4 2.2 7.0 0.5 1.5 0.8 0.1 0.0 0.0 0.0 0.0 0.9 0.2 0.0 0.1 0.2 1.4 3.6 2.8 2.1 3.0 8.5 6.2 1.7 0.0 0.0 0.1 0.6 0.2 0.0 0.1 0.1
0.0 8.4 0.0 0.0 14.1 9.2 13.5 1.6 nan 0.0 0.0 0.0 0.0 0.2 2.1 2.6 2.8 0.7 0.3 0.1 0.0 0.0 0.5 0.1 0.9 2.9 0.2 0.0 0.0 0.0 0.3 1.1 9.4 2.7 1.4 5.0 2.8 0.0 0.0 0.0 0.0 0.2 0.2 0.2 0.1
0.4 0.9 0.0 0.0 33.9 18.5 3.3 0.2 0.0 0.0 0.1 0.0 0.1 0.0 0.1 3.0 4.2 1.0 0.1 0.0 0.0 0.0 1.3 0.7 4.1 8.2 4.0 1.9 0.0 0.1 0.0 0.1 1.9 3.4 2.9 16.5 3.6 0.0 0.0 0.0 0.0 0.3 0.2 0.5 0.3
0.1 10.6 5.1 0.3 0.6 1.5 3.7 3.6 1.1 0.0 0.0 0.0 0.1 0.0 0.6 2.3 0.2 1.5 0.1 0.0 0.0 0.0 nan nan 1.8 5.5 2.8 0.3 0.2 0.3 0.0 0.0 6.1 12.9 7.2 3.4 6.1 0.3 0.9 2.1 0.5 0.3 0.4 1.0 1.1
0.2 4.5 5.5 23.9 8.4 0.5 0.2 0.1 0.4 2.2 0.0 0.0 0.1 0.1 0.5 4.6 1.4 2.8 0.2 0.1 0.0 nan 0.0 0.0 6.0 1.1 1.2 0.3 0.3 0.4 0.6 0.5 2.6 3.7 11.2 2.8 5.5 6.5 5.9 10.9 5.9 3.0 0.8 1.5 1.9
0.4 1.7 1.8 3.2 0.1 0.2 1.5 2.9 0.2 0.9 0.2 0.1 0.3 0.0 0.1 2.7 0.3 4.4 1.4 0.4 0.3 0.1 0.1 0.0 5.4 0.5 2.9 0.5 0.4 0.7 0.3 0.2 0.5 1.8 0.9 0.7 1.5 0.0 0.1 0.4 3.0 3.3 3.6 3.1 4.5
0.0 0.0 0.3 nan 0.8 2.2 1.1 0.8 0.1 0.0 0.0 0.0 0.1 0.2 0.2 0.1 0.1 0.1 0.0 0.1 0.1 0.9 0.6 0.7 3.4 7.4 13.0 0.3 0.1 11.4 0.0 0.2 1.6 1.0 3.6 5.2 3.9 0.9 3.5 3.2 6.4 5.1 4.9 6.2 7.4
Water_Equivalent
nan nan nan nan nan nan nan nan nan nan nan nan nan nan nan nan nan 0.00 0.00 0.00 0.00 nan nan 0.00 0.00 0.00 0.00 0.00 0.00 0.00 0.00 0.00 0.00 0.00 0.00 0.00 0.00 0.00 0.00 0.00 0.00 0.00 0.00 0.00 0.00
nan nan nan nan nan nan nan nan nan nan nan nan nan nan nan nan 0.00 0.00 nan nan nan nan 0.00 0.00 0.00 0.00 0.00 0.00 0.00 0.00 0.00 0.00 0.00 0.00 0.00 0.00 0.00 0.00 0.00 0.00 0.00 0.00 0.00 0.00 0.00
nan nan nan nan nan nan nan nan nan nan nan nan nan nan nan 0.00 0.00 0.00 nan nan nan 0.00 0.00 0.00 0.00 0.00 0.00 0.00 0.00 0.00 0.00 0.00 0.00 0.00 0.00 0.00 0.00 0.00 0.00 0.00 0.00 0.00 0.00 0.00 0.00
nan nan nan nan nan nan nan nan nan nan nan nan nan nan nan 0.00 0.00 0.00 nan nan nan 0.00 0.00 0.00 0.00 0.00 0.00 0.00 0.00 0.00 0.00 0.00 0.00 0.00 0.00 0.00 0.00 0.00 0.00 0.00 0.00 0.00 0.00 0.00 0.00
nan nan nan nan nan nan nan nan nan nan nan nan nan nan 0.00 0.00 0.00 0.00 nan nan 0.00 0.00 0.00 0.00 0.00 0.00 0.00 0.00 0.00 0.00 0.00 0.00 0.00 0.00 0.00 0.00 0.00 0.00 0.00 0.00 0.00 0.00 0.00 0.00 0.00
nan nan nan nan nan nan nan nan nan nan nan nan nan nan 0.00 0.00 0.00 0.00 0.00 0.00 0.00 0.00 0.00 0.00 0.00 0.00 0.00 0.00 0.00 0.00 0.00 0.00 0.00 0.00 0.00 0.00 0.00 0.00 0.00 0.00 0.00 0.00 0.00 0.00 0.00
nan nan nan nan nan nan nan nan nan nan nan nan nan 0.00 0.00 0.00 0.00 0.00 0.00 0.00 0.00 0.00 0.00 0.00 0.00 0.00 0.00 0.00 0.00 0.00 0.00 0.00 0.00 0.00 0.00 0.00 0.00 0.00 0.00 0.00 0.00 0.00 0.00 0.00 0.00
nan nan nan nan nan nan nan nan nan nan nan nan nan 0.00 0.00 0.00 0.00 0.00 0.00 0.00 0.00 0.00 0.00 0.00 0.00 0.00 0.00 0.00 0.00 0.00 0.00 0.00 0.00 0.00 0.00 0.00 0.00 0.00 0.00 0.00 0.00 0.00 0.00 0.00 0.00
nan nan nan nan nan nan nan nan nan nan nan nan 0.00 0.00 0.00 nan 0.00 0.00 0.00 0.00 0.00 0.00 0.00 0.00 0.00 0.00 0.00 0.00 0.00 0.00 0.00 0.00 0.00 0.00 0.00 0.00 0.00 0.00 0.00 0.00 0.00 0.00 0.00 0.00 0.00
nan nan nan nan nan nan nan nan nan nan 0.00 0.00 0.00 0.00 0.00 0.00 0.00 0.00 0.00 0.00 0.00 0.00 0.00 0.00 0.00 0.00 0.00 0.00 0.21 0.00 0.00 0.00 0.00 0.00 0.00 0.00 0.00 0.00 0.00 0.00 0.00 0.00 0.00 0.00 0.00
nan nan nan nan nan nan 0.00 0.00 0.00 0.00 0.00 0.00 0.00 0.00 0.00 0.00 0.00 0.00 0.00 0.00 0.00 0.00 0.00 0.00 0.00 0.00 0.00 0.00 0.00 0.00 0.01 0.01 0.00 0.00 0.00 0.00 0.00 0.00 0.00 0.00 0.00 0.00 0.00 0.00 0.00
nan nan nan nan nan nan 0.00 0.00 0.00 0.00 0.00 0.00 0.00 0.00 0.00 0.00 0.00 0.00 0.00 0.00 0.00 0.00 0.00 0.00 0.00 0.00 0.00 0.00 0.00 0.00 0.00 0.02 0.00 0.00 0.00 0.00 0.00 0.00 0.00 0.00 0.00 0.00 0.00 0.00 0.00
nan nan nan nan nan 0.00 0.00 0.00 0.00 0.00 0.00 0.00 0.00 0.00 0.00 0.00 0.00 0.00 0.00 0.00 0.00 0.00 0.00 0.02 0.00 0.00 0.00 0.00 0.00 0.00 0.01 0.00 0.01 0.00 0.00 0.00 0.01 0.00 0.00 0.00 0.00 0.00 0.00 0.00 0.00
nan nan nan nan nan 0.00 0.00 0.00 0.00 0.00 0.34 0.03 0.00 0.00 0.00 0.00 0.00 0.00 0.00 0.00 0.00 0.00 0.00 0.00 0.00 0.00 0.00 0.00 0.00 0.02 0.00 0.00 0.00 0.06 0.40 0.00 0.81 0.00 0.00 0.00 0.00 0.00 0.00 0.00 0.00
nan nan nan nan 0.00 0.00 0.00 0.00 0.00 0.00 7.28 0.00 0.00 0.00 0.00 0.00 0.00 0.00 0.00 0.00 0.00 0.00 0.01 0.00 0.00 0.00 0.00 0.00 0.00 0.03 0.00 0.00 0.00 0.10 0.06 0.00 0.19 0.00 0.00 0.00 0.00 0.00 0.00 0.00 0.00
nan nan nan 0.00 0.00 0.00 0.00 0.00 0.00 4.31 6.50 0.92 0.00 0.00 0.00 0.00 0.00 0.00 0.00 0.00 0.00 0.00 0.00 0.00 0.00 0.00 0.00 0.00 0.00 0.00 0.00 0.00 0.01 0.03 1.55 0.00 0.01 0.00 0.00 0.00 0.00 0.00 0.00 0.00 0.00
nan nan nan 0.00 0.00 0.00 0.00 0.00 10.77 11.86 0.22 0.60 0.43 0.00 0.00 0.00 0.00 0.00 0.00 0.00 0.08 0.54 0.06 0.00 0.00 0.00 0.00 0.00 0.00 0.00 0.13 2.97 3.76 4.63 2.10 0.00 0.01 0.00 0.00 0.00 0.00 0.00 0.00 0.00 0.00
nan nan nan 0.00 0.00 0.00 0.00 0.13 14.79 3.85 1.57 0.01 0.02 0.00 0.05 0.00 0.00 0.00 0.00 0.07 0.00 0.03 0.16 0.19 0.57 0.00 0.00 0.00 0.04 0.03 0.48 1.53 1.54 1.22 0.48 0.00 0.57 0.00 0.00 0.00 0.00 0.00 0.00 0.00 0.00
nan 0.00 0.00 0.00 0.00 0.00 0.03 11.09 5.31 0.99 0.53 0.08 0.04 0.80 0.46 0.03 0.03 0.00 0.02 0.05 0.00 0.02 0.31 0.16 0.07 0.00 0.00 0.00 0.00 0.22 0.80 0.00 1.23 0.64 0.79 0.14 0.01 0.00 0.00 0.00 0.00 0.00 0.00 0.00 0.00
0.00 0.00 0.00 0.00 0.00 0.00 4.38 nan 1.58 0.00 0.01 0.01 0.62 0.42 2.27 0.96 0.06 0.04 0.03 0.01 0.00 0.01 0.00 0.02 0.30 0.00 0.00 0.00 0.00 0.09 0.00 0.90 1.37 1.99 0.92 0.38 0.07 0.05 0.00 0.00 0.01 0.03 0.00 0.00 0.00
0.00 0.12 0.00 0.00 0.00 0.28 6.70 2.50 0.54 0.00 0.00 0.04 0.63 0.99 0.52 1.60 0.15 0.41 0.23 0.04 0.00 0.00 0.00 0.01 0.13 0.04 0.00 0.03 0.05 0.34 0.83 0.60 0.37 0.60 1.19 0.83 0.31 0.01 0.01 0.03 0.12 0.04 0.01 0.01 0.02
0.00 2.97 0.00 0.00 5.07 3.50 3.80 0.49 nan 0.00 0.00 0.01 0.00 0.05 0.51 0.62 0.64 0.17 0.08 0.02 0.00 0.00 0.12 0.02 0.22 0.56 0.06 0.00 0.00 0.00 0.08 0.21 1.27 0.43 0.27 0.68 0.37 0.00 0.00 0.00 0.00 0.04 0.04 0.03 0.02
0.15 0.26 0.00 0.00 8.85 4.95 1.00 0.05 0.00 0.01 0.02 0.02 0.03 0.01 0.04 0.68 0.81 0.26 0.04 0.00 0.00 0.00 0.35 0.23 0.94 1.55 0.75 0.37 0.01 0.02 0.00 0.03 0.31 0.64 0.42 2.02 0.54 0.00 0.00 0.00 0.00 0.05 0.04 0.09 0.05
0.03 3.07 1.91 0.11 0.23 0.50 1.09 1.03 0.30 0.00 0.00 0.00 0.04 0.00 0.16 0.45 0.06 0.32 0.03 0.00 0.00 0.00 nan nan 0.40 0.76 0.43 0.06 0.04 0.05 0.01 0.00 0.83 1.95 0.98 0.55 0.85 0.06 0.19 0.40 0.09 0.07 0.07 0.15 0.16
0.09 1.42 2.14 5.88 2.22 0.16 0.05 0.02 0.13 0.55 0.00 0.00 0.03 0.02 0.11 0.73 0.26 0.47 0.06 0.02 0.01 nan 0.00 0.01 1.23 0.22 0.22 0.06 0.06 0.07 0.10 0.10 0.37 0.57 1.38 0.45 0.76 1.01 1.07 1.91 1.17 0.59 0.17 0.25 0.28
0.16 0.54 0.61 1.07 0.03 0.04 0.41 0.75 0.07 0.30 0.06 0.03 0.08 0.01 0.02 0.47 0.07 0.78 0.30 0.10 0.08 0.02 0.02 0.00 1.22 0.10 0.56 0.10 0.07 0.11 0.05 0.04 0.10 0.35 0.15 0.11 0.25 0.01 0.04 0.10 0.65 0.70 0.66 0.51 0.70
0.00 0.00 0.12 nan 0.21 0.55 0.35 0.23 0.02 0.01 0.01 0.01 0.02 0.04 0.04 0.03 0.03 0.03 0.01 0.02 0.02 0.20 0.14 0.15 0.70 2.03 2.99 0.05 0.03 2.02 0.00 0.03 0.26 0.18 0.53 0.67 0.60 0.18 0.56 0.59 1.20 0.84 0.83 0.96 1.14
SL_Ratio
nan nan nan nan nan nan nan nan nan nan nan nan nan nan nan nan nan nan nan nan nan nan nan nan nan nan nan nan nan nan nan nan nan nan nan nan nan nan nan nan nan nan nan nan nan
nan nan nan nan nan nan nan nan nan nan nan nan nan nan nan nan nan nan nan nan nan nan nan nan nan nan nan nan nan nan nan nan nan nan nan nan nan nan nan nan nan nan nan nan nan
nan nan nan nan nan nan nan nan nan nan nan nan nan nan nan nan nan nan nan nan nan nan nan nan nan nan nan nan nan nan nan nan nan nan nan nan nan nan nan nan nan nan nan nan nan
nan nan nan nan nan nan nan nan nan nan nan nan nan nan nan nan nan nan nan nan nan nan nan nan nan nan nan nan nan nan nan nan nan nan nan nan nan nan nan nan nan nan nan nan nan
nan nan nan nan nan nan nan nan nan nan nan nan nan nan nan nan nan nan nan nan nan nan nan nan nan nan nan nan nan nan nan nan nan nan nan nan nan nan nan nan nan nan nan nan nan
nan nan nan nan nan nan nan nan nan nan nan nan nan nan nan nan nan nan nan nan nan nan nan nan nan nan nan nan nan nan nan nan nan nan nan nan nan nan nan nan nan nan nan nan nan
nan nan nan nan nan nan nan nan nan nan nan nan nan nan nan nan nan nan nan nan nan nan nan nan nan nan nan nan nan nan nan nan nan nan nan nan nan nan nan nan nan nan nan nan nan
nan nan nan nan nan nan nan nan nan nan nan nan nan nan nan nan nan nan nan nan nan nan nan nan nan nan nan nan nan nan nan nan nan nan nan nan nan nan nan nan nan nan nan nan nan
nan nan nan nan nan nan nan nan nan nan nan nan nan nan nan nan nan nan nan nan nan nan nan nan nan nan nan nan nan nan nan nan nan nan nan nan nan nan nan nan nan nan nan nan nan
nan nan nan nan nan nan nan nan nan nan nan nan nan nan nan nan nan nan nan nan nan nan nan nan nan nan nan nan 2.6 nan nan nan nan nan nan nan nan nan nan nan nan nan nan nan nan
nan nan nan nan nan nan nan nan nan nan nan nan nan nan nan nan nan nan nan nan nan nan nan nan nan nan nan nan nan nan 2.5 2.7 nan nan nan nan nan nan nan nan nan nan nan nan nan
nan nan nan nan nan nan nan nan nan nan nan nan nan nan nan nan nan nan nan nan nan nan nan nan nan nan nan nan nan nan 3.8 3.6 nan nan nan nan nan nan nan nan nan nan nan nan nan
nan nan nan nan nan nan nan nan nan nan nan nan nan nan nan nan nan nan nan nan nan nan nan 3.7 nan nan nan nan nan nan 3.5 5.0 3.5 nan nan nan 2.9 nan nan nan nan nan nan nan nan
nan nan nan nan nan nan nan nan nan nan 2.9 2.9 nan nan nan nan nan nan nan nan nan nan nan nan nan nan nan nan nan 4.0 nan nan nan 3.9 4.5 nan 5.1 nan nan nan nan nan nan nan nan
nan nan nan nan nan nan nan nan nan nan 4.8 nan nan nan nan nan nan nan nan nan nan nan 4.0 5.0 nan nan nan nan nan 4.0 nan nan nan 3.8 4.8 4.2 5.2 nan nan nan nan nan nan nan nan
nan nan nan nan nan nan nan nan nan 3.3 4.7 2.8 nan nan nan nan nan nan nan nan nan nan nan nan nan nan nan nan nan nan nan nan 3.2 3.5 4.9 3.8 4.3 nan nan nan nan nan nan nan nan
nan nan nan nan nan nan nan nan 3.2 3.9 2.5 3.0 2.7 nan nan nan nan nan nan nan 3.7 4.4 3.5 nan nan nan nan 2.9 nan nan 3.6 5.4 4.9 5.3 5.3 5.0 4.4 nan nan nan nan nan nan nan nan
nan nan nan nan nan nan nan 2.6 3.6 3.6 3.5 3.5 2.9 3.3 3.1 nan 3.3 nan nan 2.9 nan 4.2 4.8 4.0 4.6 nan nan 2.5 3.6 3.7 3.8 6.3 8.7 7.1 5.6 nan 5.0 nan nan nan nan nan nan nan nan
nan nan nan nan nan nan 2.4 3.6 3.9 3.7 3.6 3.3 3.4 3.8 3.5 2.9 3.0 5.0 3.6 3.7 nan 4.0 5.8 5.0 3.8 nan nan nan nan 4.3 4.4 4.0 6.6 5.4 7.1 3.3 3.4 nan nan nan nan nan nan nan nan
nan nan nan nan nan nan 2.8 nan 3.4 nan 2.9 3.0 3.9 4.2 4.1 3.7 3.5 3.6 3.4 2.7 4.0 3.2 nan 4.6 6.9 nan nan nan nan 3.5 3.6 6.4 4.7 7.1 7.8 5.2 4.5 3.9 3.3 nan 5.0 5.2 7.5 5.0 nan
nan 2.5 nan nan nan 2.5 3.7 3.6 3.3 nan nan 3.4 4.0 4.5 4.1 4.4 3.5 3.6 3.3 3.3 nan nan nan 4.3 6.3 3.8 4.0 2.9 4.2 4.0 4.3 4.6 5.5 5.0 7.1 7.5 5.5 3.6 3.0 4.8 5.2 5.0 5.0 5.5 5.9
2.5 2.8 nan nan 2.8 2.6 3.6 3.2 nan nan nan 3.2 2.9 3.1 4.1 4.1 4.4 3.9 3.8 3.1 nan nan 4.2 4.0 4.1 5.1 4.0 nan nan 3.6 4.1 5.0 7.4 6.2 5.3 7.4 7.7 nan nan nan 5.0 5.1 5.2 5.7 6.2
2.5 3.4 nan nan 3.8 3.7 3.3 3.3 5.0 3.5 3.3 2.9 3.0 3.3 3.2 4.4 5.2 3.8 3.0 nan nan nan 3.7 3.1 4.4 5.3 5.3 5.0 3.3 3.2 nan 5.1 6.2 5.3 6.9 8.1 6.6 nan nan 3.3 5.0 5.5 5.7 6.1 6.0
2.5 3.4 2.7 2.5 2.7 2.9 3.4 3.5 3.7 nan 3.3 2.5 3.5 3.3 3.9 5.1 3.2 4.7 3.2 5.0 nan nan nan nan 4.5 7.2 6.6 5.9 4.5 4.9 2.8 4.0 7.3 6.6 7.3 6.2 7.1 4.4 4.9 5.3 5.0 4.9 5.8 6.3 6.9
2.5 3.2 2.6 4.1 3.8 2.9 3.7 3.3 3.3 3.9 3.0 nan 3.8 3.4 4.8 6.3 5.3 5.9 3.5 3.0 2.9 nan nan 4.3 4.9 5.1 5.4 4.5 4.9 6.0 6.1 5.3 7.1 6.6 8.1 6.3 7.2 6.4 5.5 5.7 5.0 5.1 4.9 6.2 6.7
2.7 3.1 2.9 3.0 3.1 4.8 3.6 3.9 3.4 3.2 3.1 3.1 3.8 4.7 4.5 5.8 4.7 5.6 4.6 3.7 3.6 3.0 2.9 2.5 4.4 5.2 5.2 5.2 5.2 6.3 5.1 5.4 5.2 5.3 5.9 5.9 6.1 3.6 3.8 4.4 4.7 4.7 5.4 6.1 6.4
nan 2.5 2.5 nan 3.9 4.0 3.2 3.5 3.2 5.0 3.3 2.8 3.8 4.6 4.7 4.3 3.7 3.5 3.4 3.5 3.7 4.5 4.3 4.3 4.8 3.6 4.4 5.2 4.3 5.6 6.0 5.2 6.1 5.5 6.7 7.8 6.5 4.9 6.3 5.5 5.4 6.1 6.0 6.5 6.5